Laredo, TX

1:27 AM CST en Diciembre 13, 2017 (GMT -0600)
Laredo International

Tiempo Historia de KLRD - Junio, 2017

Change the Weather History Date:

Lunes, Junio 19, 2017

  Actual Average Record
Temperature  
Temperatura media 89 ° F 87 ° F  
Temperatura máxima 100 ° F 99 ° F 112 ° F (2011)
Temperatura mínima 77 ° F 76 ° F 60 ° F (1912)
Degree Days  
Grados día de calefacción 0 0  
Month to date heating degree days 0 0  
Since 1 June heating degree days 0 0  
Since 1 July heating degree days 396 926  
Cooling Degree Days 24 22  
Month to date cooling degree days 420 411  
Year to date cooling degree days 1943 1554  
Since 1 June cooling degree days 420 411  
Growing Degree Days 38 (Base 50)    
Moisture  
Punto de rocío 70 ° F    
Average Humidity 59    
Maximum Humidity 85    
Minimum Humidity 33    
Precipitación  
Precipitación 0.00 pul 0.09 pul 2.35 pul (1985)
Month to date precipitation 0.10 1.35  
Year to date precipitation 10.50 8.22  
Presión al nivel del mar  
Presión al nivel del mar 29.86 pul    
Viento  
Velocidad del viento 12 mph (ESE)    
Velocidad máxima del viento 16 mph    
Max Gust Speed 16 mph    
Visibilidad 10 Millas    
Eventos      
T = Trace of Precipitation, MM = Missing Value Source: NWS Daily Summary

Daily Weather History Graph

Daily Weather History Graph

Search for Another Location

Airport or City:

Trip Planner

Search our weather history database for the weather conditions in past years. The results will help you decide how hot, cold, wet, or windy it might be!

Date:

Astronomía

Jun. 19, 2017 Salida Puesta
Hora real 6:42 AM CDT 8:35 PM CDT
Crepúsculo civil 6:16 AM CDT 9:02 PM CDT
Crepúsculo náutico 5:44 AM CDT 9:34 PM CDT
Crepúsculo astronómico 5:10 AM CDT 10:08 PM CDT
Luna 3:04 AM CDT (6/19) 3:54 PM CDT (6/19)
Horas de luz 14h 46m
Horas de luz
13h 53m
Creciente menguante, 26% of the Moon is Illuminated
Jun 19
Creciente menguante
Jun 23
Nueva
Jun 30
Cuarto creciente
Jul 8
Luna llena
Jul 16
Cuarto menguante

Hourly Weather History & Observations

Hora (CDT) Temp. Índice de calor Punto de rocío Humedad Presión Visibilidad Wind Dir Velocidad del viento Velocidad de ráfagas Precip Eventos Condiciones
12:56 AM 82.9 ° F 88.0 ° F 72.0 ° F 69% 29.81 pul 10.0 mi SE 16.1 mph - N/A   Despejado
1:56 AM 81.0 ° F 85.2 ° F 72.0 ° F 74% 29.81 pul 10.0 mi SSE 12.7 mph - N/A   Despejado
2:56 AM 80.1 ° F 83.8 ° F 72.0 ° F 76% 29.81 pul 10.0 mi SSE 15.0 mph - N/A   Despejado
3:56 AM 79.0 ° F - 73.0 ° F 82% 29.81 pul 10.0 mi SSE 13.8 mph - N/A   Nubes dispersas
4:56 AM 79.0 ° F - 72.0 ° F 79% 29.79 pul 10.0 mi SSE 12.7 mph - N/A   Despejado
5:56 AM 78.1 ° F - 72.0 ° F 81% 29.81 pul 10.0 mi SSE 12.7 mph - N/A   Despejado
6:56 AM 77.0 ° F - 72.0 ° F 84% 29.83 pul 10.0 mi ESE 8.1 mph - N/A   Despejado
7:56 AM 78.1 ° F - 73.0 ° F 84% 29.86 pul 10.0 mi ESE 8.1 mph - N/A   Despejado
8:37 AM 80.6 ° F 85.4 ° F 73.4 ° F 79% 29.88 pul 10.0 mi ESE 15.0 mph - N/A   Muy nublado
8:56 AM 82.0 ° F 87.4 ° F 73.0 ° F 74% 29.88 pul 10.0 mi SE 12.7 mph - N/A   Nubes dispersas
9:56 AM 84.9 ° F 91.4 ° F 73.0 ° F 67% 29.89 pul 10.0 mi SE 15.0 mph - N/A   Nubes dispersas
10:56 AM 88.0 ° F 95.6 ° F 73.0 ° F 61% 29.90 pul 10.0 mi SE 12.7 mph - N/A   Nubes dispersas
11:56 AM 91.0 ° F 99.3 ° F 73.0 ° F 55% 29.91 pul 10.0 mi Variable 6.9 mph - N/A   Despejado
12:56 PM 95.0 ° F 101.3 ° F 70.0 ° F 44% 29.89 pul 10.0 mi Este 11.5 mph - N/A   Despejado
1:56 PM 97.0 ° F 102.8 ° F 69.1 ° F 40% 29.89 pul 10.0 mi ESE 11.5 mph 16.1 mph N/A   Despejado
2:56 PM 99.0 ° F 104.2 ° F 68.0 ° F 36% 29.87 pul 10.0 mi Este 6.9 mph - N/A   Parcialmente nublado
3:56 PM 100.0 ° F 104.9 ° F 66.9 ° F 34% 29.87 pul 10.0 mi Este 13.8 mph - N/A   Despejado
4:56 PM 99.0 ° F 103.5 ° F 66.9 ° F 35% 29.84 pul 10.0 mi ENE 10.4 mph - N/A   Despejado
5:56 PM 97.0 ° F 100.4 ° F 66.0 ° F 36% 29.82 pul 10.0 mi Este 8.1 mph - N/A   Despejado
6:56 PM 96.1 ° F 99.3 ° F 66.0 ° F 37% 29.82 pul 10.0 mi ESE 10.4 mph - N/A   Despejado
7:56 PM 95.0 ° F 97.4 ° F 64.9 ° F 37% 29.84 pul 10.0 mi Este 9.2 mph - N/A   Despejado
8:56 PM 91.9 ° F 96.9 ° F 69.1 ° F 47% 29.86 pul 10.0 mi Este 10.4 mph - N/A   Despejado
9:56 PM 89.1 ° F 93.7 ° F 69.1 ° F 52% 29.88 pul 10.0 mi Este 13.8 mph - N/A   Despejado
10:56 PM 87.1 ° F 91.3 ° F 69.1 ° F 55% 29.91 pul 10.0 mi ESE 15.0 mph - N/A   Despejado
11:56 PM 84.9 ° F 89.4 ° F 70.0 ° F 61% 29.94 pul 10.0 mi ESE 10.4 mph - N/A   Despejado